Location: Stendal
(52.5994°N, 11.8400°E)
Time: 05:48:20
(UTC+02:00)

ISS - Pass Details

Date: 24 July 2021
Orbit: 417 x 423 km, 51.6° (Epoch: 26 September)

Event Time Altitude Azimuth Distance (km) Brightness Sun altitude
Rises 00:30:56 0° 281° (W) 2,359 0.4 -16.8°
Reaches altitude 10° 00:33:18 10° 265° (W) 1,495 -0.9 -16.8°
Enters shadow 00:35:04 20° 237° (WSW) 1,038 -2.0 -16.9°
